Weather in Skripino

Russia / Vladimir Oblast     55°36′07″N   41°29′58″E
temp.,
°C
wind,
m/s
gust,
m/s
humid.,
%
clouds,
%
prec.,
mm/h
press.,
hPa
HPBL,
m
3 march, wed
wed300:00−2nw41096100 0.2 1007594
03:00−3nw5108996 0.3 1009754
06:00−7nw5129280 0.0 1010496
09:00−6nw6118990 0.0 1012537
12:00−3nw6108097 0.0 1012959
15:00−2wnw598682 0.1 1012941
18:00−3w4119199 0.1 1010563
21:00−2w5129498 0.3 1009699
4 march, thu
thu400:00−2w51194100 0.2 1007736
03:00−2wsw61393100 0.4 1004779
06:00−1wsw61395100 0.4 1001783
09:000w71396100 1.4 10001021
12:000nw4891100 0.9 999724
15:000wnw4882100 1.2 1000953
18:00−2wnw2288100 0.0 99965
21:00−4nnw1292100 0.1 100036
5 march, fri
fri500:00−5nne2495100 0.0 1000132
03:00−7nne2595100 0.0 1001165
06:00−8n3694100 0.0 1003211
09:00−8n369285 0.0 1005273
12:00−5n348121 0.0 1007656
15:00−4nw237752 0.0 1009875
18:00−8nw229068 0.0 101021
21:00−9sw129143 0.0 101221
6 march, sat
sat600:00−10sw239322 0.0 101232
03:00−9wsw249661 0.1 101389
06:00−9nw3796100 0.5 1013267
09:00−11nnw479089 0.5 1014307
12:00−9nw47770 0.0 1015699
15:00−8nw35730 0.0 1015799
18:00−11w23870 0.0 101546
21:00−13sw36900 0.0 1015109
7 march, sun
sun700:00−13sw39910 0.0 1013210
03:00−12ssw4109624 0.0 1011269
06:00−10ssw6138893 0.0 1007474
09:00−8ssw7149197 0.2 1003986
12:00−5sw81588100 0.6 9981184
15:00−4sw91692100 1.6 9931215
18:00−2sw91892100 1.5 9911446
21:00−7wsw41179100 2.6 993883